Location: ?
(35.4064°N, 139.3593°E)
Time: 15:41:47
(UTC+00:00)

ACS3 Solar Sail - Pass Details

Date: 23 June 2024
Orbit: 993 x 1023 km, 97.4° (Epoch: 19 July)

Event Time Altitude Azimuth Distance (km) Brightness Sun altitude
Exits shadow 13:03:43 30° 223° (SW) 1,717 5.9 -26.5°
Maximum altitude 13:05:53 38° 264° (W) 1,468 5.8 -26.7°
Drops below altitude 10° 13:11:38 10° 331° (NNW) 2,764 8.2 -27.2°
Sets 13:14:19 0° 340° (NNW) 3,715 9.1 -27.4°
